Date String (YYYY-MM-DD hh:mm:ss) UTC,Instrument flags,absolute air pressure of the measurement (hPa),sample flow rate (lpm),inlet stack bypass flow (lpm),air temperature of the measurement (°C),ambient temperature measured by the external sensor (°C),aerosol sample conditioner tube jacket temperature (°C),OPC LED temperature (°C),internal box temperature (°C),relative humidity of the measurement (%),span deviation,mass concentration of particles derived from Lorenz-Mie calculation of OPC scattering (μg/m³),mass concentration of particles derived from Lorenz-Mie calculation of OPC scattering (μg/m³),mass concentration of particles derived from Lorenz-Mie calculation of OPC scattering (μg/m³)
DateTimeUTC,F1_M11,P_M11,Q1_M11,Q2_M11,T1_M11,T2_M11,T3_M11,T4_M11,T5_M11,U1_M11,ZSPAN_M11,X0_M11,X2_M11,X1_M11
2023-07-22 19:00:00,SystemResetWarning,0835.5,5.00,000.00,028.5,026.8,000.0,036.9,030.2,25.8,0000.0,0007.72,0004.50,0004.15
2023-07-22 19:01:00,SystemResetWarning,0835.5,5.00,000.00,028.6,027.1,000.0,036.9,030.3,27.0,0000.0,0007.72,0004.51,0004.17
2023-07-22 19:02:00,SystemResetWarning,0835.5,5.00,000.00,028.6,027.3,000.0,036.9,030.4,26.0,0000.0,0007.76,0004.49,0004.18
2023-07-22 19:03:00,SystemResetWarning,0835.5,4.98,000.00,028.6,026.1,000.0,036.8,030.2,25.7,0000.0,0007.63,0004.46,0004.19
2023-07-22 19:04:00,SystemResetWarning,0835.5,5.01,000.00,028.5,024.9,000.0,036.7,029.9,26.0,0000.0,0007.62,0004.46,0004.20
2023-07-22 19:05:00,SystemResetWarning,0835.5,5.01,000.00,028.5,024.8,000.0,036.7,029.8,25.7,0000.0,0007.76,0004.49,0004.21
2023-07-22 19:06:00,SystemResetWarning,0835.5,4.98,000.00,028.4,025.1,000.0,036.7,029.7,25.7,0000.0,0007.96,0004.55,0004.25
2023-07-22 19:07:00,SystemResetWarning,0835.6,4.99,000.00,028.4,025.5,000.0,036.8,029.8,26.7,0000.0,0008.09,0004.61,0004.28
2023-07-22 19:08:00,SystemResetWarning,0835.5,5.00,000.00,028.4,026.0,000.0,036.8,029.9,29.2,0000.0,0008.24,0004.62,0004.31
2023-07-22 19:09:00,SystemResetWarning,0835.6,5.01,000.00,028.4,026.4,000.0,036.8,030.0,28.5,0000.0,0008.49,0004.63,0004.32
2023-07-22 19:10:00,SystemResetWarning,0835.5,5.01,000.00,028.5,026.8,000.0,036.8,030.1,27.6,0000.0,0008.43,0004.64,0004.33
2023-07-22 19:11:00,SystemResetWarning,0835.5,5.00,000.00,028.5,027.1,000.0,036.8,030.2,29.0,0000.0,0008.08,0004.64,0004.33
2023-07-22 19:12:00,SystemResetWarning,0835.5,4.99,000.00,028.6,027.4,000.0,036.9,030.3,28.2,0000.0,0008.00,0004.63,0004.33
2023-07-22 19:13:00,SystemResetWarning,0835.5,4.98,000.00,028.6,027.2,000.0,036.9,030.3,27.8,0000.0,0007.88,0004.64,0004.34
2023-07-22 19:14:00,SystemResetWarning,0835.5,5.00,000.00,028.6,025.6,000.0,036.8,030.1,26.9,0000.0,0008.20,0004.66,0004.35
2023-07-22 19:15:00,SystemResetWarning,0835.5,5.00,000.00,028.5,024.8,000.0,036.7,030.0,26.4,0000.0,0008.74,0004.69,0004.35
2023-07-22 19:16:00,SystemResetWarning,0835.5,5.01,000.00,028.5,024.9,000.0,036.7,029.9,27.6,0000.0,0008.67,0004.69,0004.34
2023-07-22 19:17:00,SystemResetWarning,0835.5,5.01,000.00,028.4,025.3,000.0,036.7,029.8,28.4,0000.0,0008.62,0004.68,0004.33
2023-07-22 19:18:00,SystemResetWarning,0835.5,5.00,000.00,028.4,025.7,000.0,036.7,029.9,28.8,0000.0,0008.64,0004.68,0004.32
2023-07-22 19:19:00,SystemResetWarning,0835.5,5.00,000.00,028.4,026.2,000.0,036.8,030.0,27.7,0000.0,0008.62,0004.71,0004.31
2023-07-22 19:20:00,SystemResetWarning,0835.5,5.00,000.00,028.5,026.6,000.0,036.8,030.1,29.6,0000.0,0008.33,0004.69,0004.30
2023-07-22 19:21:00,SystemResetWarning,0835.5,4.99,000.00,028.5,026.9,000.0,036.8,030.2,30.8,0000.0,0008.20,0004.68,0004.31
2023-07-22 19:22:00,SystemResetWarning,0835.5,5.00,000.00,028.6,027.2,000.0,036.9,030.3,30.8,0000.0,0008.17,0004.70,0004.33
2023-07-22 19:23:00,SystemResetWarning,0835.5,5.00,000.00,028.6,027.2,000.0,036.9,030.3,28.1,0000.0,0008.21,0004.72,0004.34
2023-07-22 19:24:00,SystemResetWarning,0835.5,4.99,000.00,028.6,025.8,000.0,036.8,030.2,29.9,0000.0,0008.23,0004.72,0004.33
2023-07-22 19:25:00,SystemResetWarning,0835.5,5.02,000.00,028.5,024.8,000.0,036.7,030.0,30.2,0000.0,0008.27,0004.73,0004.33
2023-07-22 19:26:00,SystemResetWarning,0835.5,5.01,000.00,028.5,024.8,000.0,036.7,029.9,28.7,0000.0,0008.05,0004.73,0004.35
2023-07-22 19:27:00,SystemResetWarning,0835.5,5.00,000.00,028.4,025.2,000.0,036.7,029.8,27.3,0000.0,0008.05,0004.73,0004.37
2023-07-22 19:28:00,SystemResetWarning,0835.5,5.00,000.00,028.4,025.6,000.0,036.7,029.9,28.3,0000.0,0008.21,0004.75,0004.37
2023-07-22 19:29:00,SystemResetWarning,0835.5,5.00,000.00,028.4,026.1,000.0,036.8,030.0,26.4,0000.0,0008.82,0004.77,0004.38
2023-07-22 19:30:00,SystemResetWarning,0835.5,4.99,000.00,028.5,026.5,000.0,036.8,030.1,25.5,0000.0,0008.76,0004.75,0004.38
2023-07-22 19:31:00,SystemResetWarning,0835.5,4.99,000.00,028.5,026.9,000.0,036.8,030.2,26.5,0000.0,0008.72,0004.75,0004.39
2023-07-22 19:32:00,SystemResetWarning,0835.5,5.00,000.00,028.6,027.2,000.0,036.9,030.3,26.3,0000.0,0008.84,0004.78,0004.40
2023-07-22 19:33:00,SystemResetWarning,0835.5,5.00,000.00,028.6,027.4,000.0,036.9,030.4,26.8,0000.0,0008.86,0004.78,0004.40
2023-07-22 19:34:00,SystemResetWarning,0835.4,4.99,000.00,028.6,026.9,000.0,036.8,030.4,27.3,0000.0,0008.85,0004.79,0004.41
2023-07-22 19:35:00,SystemResetWarning,0835.4,5.00,000.00,028.6,025.3,000.0,036.7,030.1,27.8,0000.0,0008.88,0004.79,0004.42
2023-07-22 19:36:00,SystemResetWarning,0835.3,5.01,000.00,028.5,024.7,000.0,036.7,029.9,27.0,0000.0,0008.58,0004.79,0004.42
2023-07-22 19:37:00,SystemResetWarning,0835.3,5.02,000.00,028.5,024.9,000.0,036.7,029.8,26.8,0000.0,0008.36,0004.81,0004.42
2023-07-22 19:38:00,SystemResetWarning,0835.3,4.99,000.00,028.4,025.4,000.0,036.7,029.8,28.0,0000.0,0008.63,0004.84,0004.43
2023-07-22 19:39:00,SystemResetWarning,0835.3,4.99,000.00,028.4,025.8,000.0,036.8,029.9,27.7,0000.0,0008.51,0004.84,0004.43
2023-07-22 19:40:00,SystemResetWarning,0835.3,5.00,000.00,028.4,026.2,000.0,036.8,030.0,28.8,0000.0,0008.17,0004.86,0004.45
2023-07-22 19:41:00,SystemResetWarning,0835.4,5.01,000.00,028.5,026.6,000.0,036.8,030.1,29.3,0000.0,0008.18,0004.85,0004.47
2023-07-22 19:42:00,SystemResetWarning,0835.3,5.01,000.00,028.5,027.0,000.0,036.8,030.2,28.4,0000.0,0008.20,0004.87,0004.48
2023-07-22 19:43:00,SystemResetWarning,0835.3,4.99,000.00,028.6,027.3,000.0,036.9,030.3,29.4,0000.0,0008.19,0004.87,0004.49
2023-07-22 19:44:00,SystemResetWarning,0835.4,4.99,000.00,028.6,027.5,000.0,036.9,030.4,29.4,0000.0,0008.17,0004.86,0004.50
2023-07-22 19:45:00,SystemResetWarning,0835.3,4.99,000.00,028.6,026.4,000.0,036.8,030.2,27.9,0000.0,0008.35,0004.87,0004.50
2023-07-22 19:46:00,SystemResetWarning,0835.2,5.00,000.00,028.6,025.1,000.0,036.7,030.0,28.1,0000.0,0008.79,0004.88,0004.50
2023-07-22 19:47:00,SystemResetWarning,0835.2,5.00,000.00,028.5,024.8,000.0,036.7,029.9,27.9,0000.0,0009.40,0004.89,0004.51
2023-07-22 19:48:00,SystemResetWarning,0835.2,5.01,000.00,028.4,025.1,000.0,036.7,029.8,27.9,0000.0,0009.30,0004.87,0004.52
2023-07-22 19:49:00,SystemResetWarning,0835.2,5.00,000.00,028.4,025.5,000.0,036.8,029.9,28.0,0000.0,0008.98,0004.84,0004.52
2023-07-22 19:50:00,SystemResetWarning,0835.3,5.00,000.00,028.4,026.0,000.0,036.8,030.0,28.4,0000.0,0008.91,0004.84,0004.53
2023-07-22 19:51:00,SystemResetWarning,0835.2,5.00,000.00,028.5,026.4,000.0,036.8,030.1,28.7,0000.0,0008.73,0004.82,0004.54
2023-07-22 19:52:00,SystemResetWarning,0835.3,4.99,000.00,028.5,026.8,000.0,036.8,030.2,29.9,0000.0,0008.51,0004.81,0004.53
2023-07-22 19:53:00,SystemResetWarning,0835.2,4.99,000.00,028.6,027.1,000.0,036.9,030.3,29.5,0000.0,0008.59,0004.82,0004.51
2023-07-22 19:54:00,SystemResetWarning,0835.3,5.00,000.00,028.6,027.4,000.0,036.9,030.4,27.9,0000.0,0008.63,0004.81,0004.50
2023-07-22 19:55:00,SystemResetWarning,0835.2,5.00,000.00,028.6,026.5,000.0,036.8,030.3,29.2,0000.0,0008.58,0004.81,0004.49
2023-07-22 19:56:00,SystemResetWarning,0835.2,5.00,000.00,028.6,025.1,000.0,036.7,030.1,29.5,0000.0,0008.46,0004.78,0004.47
2023-07-22 19:57:00,SystemResetWarning,0835.3,5.00,000.00,028.5,024.7,000.0,036.7,029.9,27.6,0000.0,0008.35,0004.77,0004.47
2023-07-22 19:58:00,SystemResetWarning,0835.3,5.01,000.00,028.5,025.0,000.0,036.7,029.8,28.5,0000.0,0007.38,0004.75,0004.46
2023-07-22 19:59:00,SystemResetWarning,0835.3,5.01,000.00,028.4,025.4,000.0,036.7,029.9,27.7,0000.0,0007.47,0004.76,0004.45
